DW2363 Weather Reports


time (UTC)temp
C
wind
direction
speed
KPH
gust
KPH
rain 1hr
cm
rain 24hr
cm
rain mn
cm
humidity
%
barometer
mb
20260902232710 21 204 8.0 14.5 0.00 0.00 0.00 59 1015.3
20260902232213 21 216 9.7 16.1 0.00 0.00 0.00 66 1015.4
20260902232209 21 195 8.0 16.1 0.00 0.00 0.00 57 1015.3
20260902231213 21 211 8.0 16.1 0.00 0.00 0.00 69 1015.5
20260902231209 21 198 9.7 16.1 0.00 0.00 0.00 68 1015.4
20260902230213 21 190 9.7 14.5 0.00 0.00 0.00 68 1015.5
20260902230209 21 198 8.0 12.9 0.00 0.00 0.00 67 1015.5
20260902225209 22 171 9.7 14.5 0.00 0.00 0.00 67 1015.5
20260902224710 21 173 8.0 14.5 0.00 0.00 0.00 66 1015.6
20260902224213 21 207 8.0 14.5 0.00 0.00 0.00 64 1015.6
20260902224209 21 198 8.0 14.5 0.00 0.00 0.00 57 1015.5
20260902223816 22 223 8.0 14.5 0.00 0.00 0.00 64 1015.7
20260902222714 22 218 8.0 14.5 0.00 0.00 0.00 65 1015.8
20260902222710 21 190 8.0 14.5 0.00 0.00 0.00 66 1015.7
20260902221709 22 163 8.0 12.9 0.00 0.00 0.00 64 1015.9
20260902221208 22 184 8.0 16.1 0.00 0.00 0.00 62 1015.8
20260902220713 22 205 8.0 14.5 0.00 0.00 0.00 59 1016.0
20260902220709 22 206 8.0 16.1 0.00 0.00 0.00 61 1015.9
20260902215713 22 176 8.0 16.1 0.00 0.00 0.00 55 1016.2
20260902215709 22 160 6.4 14.5 0.00 0.00 0.00 58 1016.0
20260902214709 22 151 8.0 16.1 0.00 0.00 0.00 62 1016.3
20260902214209 22 138 8.0 16.1 0.00 0.00 0.00 62 1016.3
20260902213709 22 175 8.0 16.1 0.00 0.00 0.00 57 1016.4
20260902213314 21 169 8.0 16.1 0.00 0.00 0.00 57 1016.5
20260902213214 21 153 9.7 17.7 0.00 0.00 0.00 50 1016.5
20260902213209 21 156 8.0 16.1 0.00 0.00 0.00 56 1016.4
20260902212821 21 169 8.0 16.1 0.00 0.00 0.00 57 1016.5
20260902211711 21 150 8.0 17.7 0.00 0.00 0.00 52 1016.5
20260902211707 21 149 9.7 17.7 0.00 0.00 0.00 51 1016.4
20260902210815 21 163 9.7 19.3 0.00 0.00 0.00 53 1016.6
20260902210711 21 144 8.0 16.1 0.00 0.00 0.00 52 1016.6
20260902210707 21 142 8.0 17.7 0.00 0.00 0.00 45 1016.5
20260902205723 21 163 9.7 19.3 0.00 0.00 0.00 53 1016.6
20260902205207 21 144 9.7 19.3 0.00 0.00 0.00 52 1016.6
20260902204707 21 138 9.7 19.3 0.00 0.00 0.00 49 1016.6
20260902204207 21 142 11.3 19.3 0.00 0.00 0.00 53 1016.7
20260902203710 21 151 9.7 16.1 0.00 0.00 0.00 51 1016.7
20260902203706 21 157 9.7 17.7 0.00 0.00 0.00 52 1016.7
20260902203217 21 156 9.7 16.1 0.00 0.00 0.00 52 1016.7
20260902202310 20 136 9.7 20.9 0.00 0.00 0.00 60 1016.8
20260902202207 21 155 8.0 17.7 0.00 0.00 0.00 49 1016.8
20260902202203 21 174 8.0 17.7 0.00 0.00 0.00 55 1016.8
20260902200703 20 165 9.7 20.9 0.00 0.00 0.00 61 1016.9
20260902200207 20 142 8.0 14.5 0.00 0.00 0.00 66 1016.9
20260902200203 21 122 9.7 14.5 0.00 0.00 0.00 64 1016.9
20260902195714 20 142 8.0 14.5 0.00 0.00 0.00 66 1016.9
20260902195203 20 133 8.0 12.9 0.00 0.00 0.00 63 1016.9
20260902194703 21 144 8.0 14.5 0.00 0.00 0.00 63 1017.0
20260902194207 20 163 8.0 14.5 0.00 0.00 0.00 69 1017.0
20260902194203 21 161 8.0 14.5 0.00 0.00 0.00 69 1017.0
20260902193201 20 159 8.0 16.1 0.00 0.00 0.00 69 1017.1
20260902192702 20 168 8.0 16.1 0.00 0.00 0.00 69 1017.1
20260902192205 20 182 8.0 12.9 0.00 0.00 0.00 72 1017.1
20260902191702 20 163 8.0 19.3 0.00 0.00 0.00 72 1017.1
20260902191202 20 150 8.0 19.3 0.00 0.00 0.00 70 1017.1
20260902190703 20 144 8.0 16.1 0.00 0.00 0.00 71 1017.1
20260902190202 20 169 8.0 17.7 0.00 0.00 0.00 66 1017.1
20260902185702 20 117 8.0 17.7 0.00 0.00 0.00 71 1017.1
20260902185203 20 175 8.0 14.5 0.00 0.00 0.00 70 1017.1
20260902185157 20 155 6.4 14.5 0.00 0.00 0.00 72 1017.2
20260902184713 20 155 6.4 14.5 0.00 0.00 0.00 72 1017.2
20260902184303 19 140 6.4 14.5 0.00 0.00 0.00 74 1017.2
20260902184203 20 183 6.4 14.5 0.00 0.00 0.00 74 1017.3
20260902184156 19 157 6.4 14.5 0.00 0.00 0.00 69 1017.3
20260902182702 19 203 6.4 14.5 0.00 0.00 0.00 76 1017.3
20260902182655 19 215 8.0 14.5 0.00 0.00 0.00 76 1017.3
20260902182300 19 203 6.4 14.5 0.00 0.00 0.00 76 1017.3
20260902181656 19 201 6.4 12.9 0.00 0.00 0.00 77 1017.2
20260902181305 18 148 6.4 12.9 0.00 0.00 0.00 79 1017.2
20260902181202 18 166 6.4 14.5 0.00 0.00 0.00 78 1017.2
20260902181156 19 198 6.4 14.5 0.00 0.00 0.00 77 1017.2
20260902180910 18 188 6.4 12.9 0.00 0.00 0.00 80 1017.1
20260902175156 18 198 6.4 11.3 0.00 0.00 0.00 80 1017.1
20260902174656 19 227 4.8 14.5 0.00 0.00 0.00 78 1017.1
20260902174156 19 230 4.8 14.5 0.00 0.00 0.00 79 1017.1
20260902173702 19 131 8.0 14.5 0.00 0.00 0.00 77 1017.0
20260902173656 19 194 6.4 14.5 0.00 0.00 0.00 78 1017.0
20260902172656 19 134 6.4 14.5 0.00 0.00 0.00 78 1017.0
20260902172156 19 132 4.8 12.9 0.00 0.00 0.00 74 1017.0
20260902171656 19 223 3.2 11.3 0.00 0.00 0.00 78 1017.0
20260902171156 19 253 3.2 11.3 0.00 0.00 0.00 79 1017.0
20260902170656 18 132 4.8 14.5 0.00 0.00 0.00 77 1017.0
20260902170201 18 146 6.4 14.5 0.00 0.00 0.00 78 1016.8
20260902170156 18 155 6.4 14.5 0.00 0.00 0.00 77 1016.9
20260902165803 18 136 6.4 14.5 0.00 0.00 0.00 78 1016.8
20260902164704 18 78 6.4 12.9 0.00 0.00 0.00 80 1016.6
20260902164656 18 153 4.8 14.5 0.00 0.00 0.00 80 1016.7
20260902164157 18 95 6.4 12.9 0.00 0.00 0.00 79 1016.7
20260902163156 18 108 8.0 14.5 0.00 0.00 0.00 81 1016.5
20260902163152 18 140 9.7 14.5 0.00 0.00 0.00 81 1016.6
20260902162759 17 139 8.0 16.1 0.00 0.00 0.00 80 1016.5
20260902161650 17 105 6.4 16.1 0.00 0.00 0.00 80 1016.6
20260902161150 17 135 6.4 12.9 0.00 0.00 0.00 81 1016.5
20260902160650 17 142 6.4 12.9 0.00 0.00 0.00 80 1016.6
20260902160155 17 86 6.4 12.9 0.00 0.00 0.00 81 1016.6
20260902160150 17 98 4.8 12.9 0.00 0.00 0.00 81 1016.6
20260902155651 17 96 4.8 11.3 0.00 0.00 0.00 82 1016.6
20260902154654 17 115 6.4 12.9 0.00 0.00 0.00 81 1016.5
20260902154650 17 144 6.4 12.9 0.00 0.00 0.00 81 1016.6
20260902154257 16 135 6.4 12.9 0.00 0.00 0.00 81 1016.4
20260902153739 16 115 4.8 11.3 0.00 0.00 0.00 82 1016.4
20260902153735 16 135 6.4 12.9 0.00 0.00 0.00 81 1016.4
20260902153257 16 147 4.8 9.7 0.00 0.00 0.00 81 1016.3
20260902152148 16 143 4.8 8.0 0.00 0.00 0.00 82 1016.4
20260902151652 16 152 4.8 11.3 0.00 0.00 0.00 82 1016.3
20260902151648 16 132 4.8 11.3 0.00 0.00 0.00 82 1016.3
20260902151302 16 146 4.8 11.3 0.00 0.00 0.00 81 1016.3
20260902151256 16 144 4.8 8.0 0.00 0.00 0.00 82 1016.4
20260902150826 16 146 4.8 11.3 0.00 0.00 0.00 81 1016.3
20260902150154 16 146 4.8 11.3 0.00 0.00 0.00 81 1016.3
20260902145648 16 146 6.4 16.1 0.00 0.00 0.00 82 1016.4
20260902145147 16 154 9.7 16.1 0.00 0.00 0.00 80 1016.4
20260902144649 16 131 9.7 14.5 0.00 0.00 0.00 78 1016.3
20260902144645 16 132 9.7 14.5 0.00 0.00 0.00 80 1016.3
20260902144254 16 123 11.3 16.1 0.00 0.00 0.00 75 1016.3
20260902143835 16 102 16.1 24.1 0.00 0.00 0.00 72 1016.0
20260902143753 16 113 11.3 16.1 0.00 0.00 0.00 71 1016.3
20260902143257 16 110 14.5 19.3 0.00 0.00 0.00 72 1016.2
20260902143253 16 111 11.3 17.7 0.00 0.00 0.00 73 1016.3
20260902142939 16 101 16.1 24.1 0.00 0.00 0.00 71 1016.2
20260902142836 16 102 16.1 24.1 0.00 0.00 0.00 72 1016.0
20260902142827 16 110 14.5 19.3 0.00 0.00 0.00 72 1016.2
20260902142708 16 111 11.3 17.7 0.00 0.00 0.00 73 1016.3
20260902142442 16 101 16.1 24.1 0.00 0.00 0.00 71 1016.2
20260902142217 16 107 12.9 17.7 0.00 0.00 0.00 74 1016.3
20260902140144 16 92 17.7 24.1 0.00 0.00 0.00 69 1015.9
20260902135754 15 90 17.7 22.5 0.00 0.00 0.00 76 1015.8
20260902135648 15 93 17.7 22.5 0.00 0.00 0.00 73 1015.7
20260902135644 16 88 19.3 24.1 0.00 0.00 0.00 72 1015.9
20260902134144 15 90 17.7 22.5 0.00 0.00 0.00 76 1015.7
20260902133644 15 79 16.1 22.5 0.00 0.00 0.00 82 1015.7
20260902133145 14 80 14.5 19.3 0.00 0.00 0.00 85 1015.7
20260902132645 14 79 14.5 19.3 0.00 0.00 0.00 87 1015.7
20260902132144 15 94 16.1 19.3 0.00 0.00 0.00 88 1015.7
20260902131643 15 86 16.1 19.3 0.00 0.00 0.00 87 1015.6
20260902131148 15 96 16.1 19.3 0.00 0.00 0.00 85 1015.6
20260902131144 15 80 16.1 19.3 0.00 0.00 0.00 87 1015.6
20260902130141 15 101 16.1 19.3 0.00 0.00 0.00 84 1015.6
20260902125640 15 98 16.1 19.3 0.00 0.00 0.00 85 1015.6
20260902125146 15 92 16.1 17.7 0.00 0.00 0.00 86 1015.6
20260902125140 15 98 16.1 17.7 0.00 0.00 0.00 86 1015.7
20260902124140 15 98 16.1 17.7 0.00 0.00 0.00 85 1015.6
20260902123639 15 98 14.5 16.1 0.00 0.00 0.00 86 1015.6
20260902123139 15 96 14.5 16.1 0.00 0.00 0.00 86 1015.6
20260902122640 15 101 14.5 17.7 0.00 0.00 0.00 85 1015.5
20260902122146 15 101 17.7 19.3 0.00 0.00 0.00 81 1015.6
20260902122140 15 103 14.5 17.7 0.00 0.00 0.00 84 1015.7
20260902121640 15 101 16.1 17.7 0.00 0.00 0.00 83 1015.7
20260902120640 15 94 17.7 19.3 0.00 0.00 0.00 80 1015.6
20260902120138 15 96 17.7 19.3 0.00 0.00 0.00 79 1015.6
20260902115644 15 94 14.5 19.3 0.00 0.00 0.00 77 1015.7
20260902115638 15 93 17.7 19.3 0.00 0.00 0.00 78 1015.6
20260902114637 15 98 11.3 16.1 0.00 0.00 0.00 78 1015.8
20260902114135 15 101 9.7 14.5 0.00 0.00 0.00 80 1015.8
20260902113635 15 107 11.3 14.5 0.00 0.00 0.00 76 1015.9
20260902113139 16 108 12.9 16.1 0.00 0.00 0.00 64 1015.7
20260902113135 15 111 12.9 16.1 0.00 0.00 0.00 70 1015.8
20260902112136 16 104 12.9 16.1 0.00 0.00 0.00 60 1015.7
20260902111640 16 104 14.5 17.7 0.00 0.00 0.00 55 1015.6
20260902111636 16 104 14.5 16.1 0.00 0.00 0.00 57 1015.7
20260902110636 16 100 14.5 17.7 0.00 0.00 0.00 52 1015.7
20260902110140 16 103 14.5 17.7 0.00 0.00 0.00 50 1015.7
20260902110136 16 102 14.5 17.7 0.00 0.00 0.00 51 1015.7
20260902105742 16 103 14.5 16.1 0.00 0.00 0.00 49 1015.7
20260902104635 16 105 12.9 17.7 0.00 0.00 0.00 46 1015.8
20260902104135 16 96 12.9 17.7 0.00 0.00 0.00 47 1015.8
20260902103635 17 92 16.1 17.7 0.00 0.00 0.00 50 1015.8
20260902103136 17 91 16.1 19.3 0.00 0.00 0.00 39 1015.8
20260902102636 16 94 16.1 19.3 0.00 0.00 0.00 43 1015.9
20260902102135 16 101 16.1 19.3 0.00 0.00 0.00 43 1015.8
20260902101635 16 94 12.9 19.3 0.00 0.00 0.00 49 1015.8
20260902101135 16 89 9.7 16.1 0.00 0.00 0.00 52 1015.8
20260902100639 16 91 6.4 14.5 0.00 0.00 0.00 33 1015.7
20260902100635 16 62 9.7 16.1 0.00 0.00 0.00 50 1015.8
20260902095635 16 87 6.4 11.3 0.00 0.00 0.00 50 1015.7
20260902095135 16 65 9.7 14.5 0.00 0.00 0.00 61 1015.8
20260902094639 17 51 11.3 14.5 0.00 0.00 0.00 46 1015.8
20260902094635 16 88 11.3 14.5 0.00 0.00 0.00 33 1015.7
20260902093633 16 82 9.7 14.5 0.00 0.00 0.00 42 1015.8
20260902093131 16 78 8.0 14.5 0.00 0.00 0.00 40 1015.8
20260902092631 16 59 8.0 11.3 0.00 0.00 0.00 46 1015.9
20260902092132 16 51 8.0 11.3 0.00 0.00 0.00 43 1015.9
20260902091631 16 46 9.7 12.9 0.00 0.00 0.00 47 1015.8
20260902091131 16 30 9.7 12.9 0.00 0.00 0.00 50 1015.8
20260902090635 17 45 8.0 9.7 0.00 0.00 0.00 41 1015.9
20260902090631 16 39 8.0 11.3 0.00 0.00 0.00 47 1015.8
20260902085631 17 63 8.0 11.3 0.00 0.00 0.00 43 1015.9
20260902085131 17 52 6.4 11.3 0.00 0.00 0.00 44 1015.8
20260902084631 17 44 4.8 9.7 0.00 0.00 0.00 44 1015.9
20260902084130 17 63 6.4 14.5 0.00 0.00 0.00 41 1015.9
20260902083630 17 78 8.0 14.5 0.00 0.00 0.00 42 1015.9
20260902083129 17 53 9.7 14.5 0.00 0.00 0.00 35 1015.9
20260902082629 18 29 8.0 14.5 0.00 0.00 0.00 27 1015.9
20260902082133 18 65 8.0 14.5 0.00 0.00 0.00 26 1015.9
20260902082129 18 18 8.0 14.5 0.00 0.00 0.00 29 1015.8
20260902081133 18 53 9.7 12.9 0.00 0.00 0.00 24 1016.0
20260902081129 18 44 8.0 12.9 0.00 0.00 0.00 27 1015.9
20260902080129 18 64 8.0 12.9 0.00 0.00 0.00 23 1015.9
20260902075628 18 37 6.4 9.7 0.00 0.00 0.00 29 1016.0
20260902075127 18 51 4.8 9.7 0.00 0.00 0.00 30 1016.0
20260902074627 18 59 4.8 8.0 0.00 0.00 0.00 29 1016.0
20260902074127 18 35 6.4 8.0 0.00 0.00 0.00 30 1016.0
20260902073627 18 42 6.4 8.0 0.00 0.00 0.00 28 1016.0
20260902073127 18 56 6.4 9.7 0.00 0.00 0.00 32 1016.0
20260902072626 18 82 8.0 11.3 0.00 0.00 0.00 29 1015.9
20260902072126 19 96 8.0 12.9 0.00 0.00 0.00 32 1015.9
20260902071631 19 109 8.0 12.9 0.00 0.00 0.00 27 1015.9
20260902071627 19 101 8.0 12.9 0.00 0.00 0.00 34 1015.9
20260902070624 19 100 8.0 12.9 0.00 0.00 0.00 19 1015.9
20260902070124 19 89 6.4 11.3 0.00 0.00 0.00 31 1015.9
20260902065625 19 76 6.4 11.3 0.00 0.00 0.00 32 1015.8
20260902065123 19 82 6.4 11.3 0.00 0.00 0.00 34 1015.9
20260902064626 20 82 6.4 9.7 0.00 0.00 0.00 33 1015.8
20260902064622 20 78 6.4 11.3 0.00 0.00 0.00 29 1015.8
20260902063622 20 92 8.0 12.9 0.00 0.00 0.00 26 1015.8
20260902063126 20 96 8.0 11.3 0.00 0.00 0.00 18 1015.8
20260902063122 20 92 9.7 12.9 0.00 0.00 0.00 22 1015.7
20260902062122 20 91 3.2 9.7 0.00 0.00 0.00 17 1015.8
20260902061623 20 59 1.6 4.8 0.00 0.00 0.00 20 1015.9
20260902061127 20 54 0.0 0.0 0.00 0.00 0.00 33 1015.8
20260902061122 20 59 0.0 3.2 0.00 0.00 0.00 31 1015.8
20260902060230 20 119 0.0 0.0 0.00 0.00 0.00 19 1015.7
20260902060126 20 61 0.0 0.0 0.00 0.00 0.00 30 1015.8
20260902060122 20 40 0.0 0.0 0.00 0.00 0.00 38 1015.7
20260902054622 20 119 0.0 0.0 0.00 0.00 0.00 20 1015.7
20260902054122 20 119 0.0 0.0 0.00 0.00 0.00 22 1015.8
20260902053626 20 112 0.0 0.0 0.00 0.00 0.00 22 1015.7
20260902053622 20 120 0.0 0.0 0.00 0.00 0.00 19 1015.8
20260902052621 20 57 0.0 0.0 0.00 0.00 0.00 30 1015.8
20260902052122 20 57 0.0 0.0 0.00 0.00 0.00 31 1015.7
20260902051625 21 57 0.0 3.2 0.00 0.00 0.00 36 1015.8
20260902051619 21 177 0.0 3.2 0.00 0.00 0.00 18 1015.8
20260902050618 21 177 0.0 3.2 0.00 0.00 0.00 14 1015.8
20260902050118 21 178 0.0 8.0 0.00 0.00 0.00 14 1015.8
20260902045617 21 207 1.6 8.0 0.00 0.00 0.00 17 1015.8
20260902045116 21 204 3.2 8.0 0.00 0.00 0.00 14 1015.7
20260902044617 21 208 6.4 8.0 0.00 0.00 0.00 14 1015.8
20260902044117 21 213 6.4 9.7 0.00 0.00 0.00 14 1015.7
20260902043620 21 207 8.0 9.7 0.00 0.00 0.00 14 1015.6
20260902043616 21 211 8.0 9.7 0.00 0.00 0.00 15 1015.6
20260902042614 21 223 8.0 9.7 0.00 0.00 0.00 14 1015.4
20260902042114 21 218 8.0 9.7 0.00 0.00 0.00 14 1015.4
20260902041614 21 216 9.7 11.3 0.00 0.00 0.00 14 1015.4
20260902041114 21 209 9.7 11.3 0.00 0.00 0.00 15 1015.3
20260902040614 21 218 8.0 11.3 0.00 0.00 0.00 16 1015.3
20260902040112 21 227 8.0 9.7 0.00 0.00 0.00 16 1015.3
20260902035612 21 226 8.0 11.3 0.00 0.00 0.00 17 1015.1
20260902035112 21 231 8.0 11.3 0.00 0.00 0.00 18 1015.1
20260902034612 21 231 9.7 12.9 0.00 0.00 0.00 19 1015.1
20260902034110 21 236 9.7 12.9 0.00 0.00 0.00 16 1015.0
20260902033609 21 227 9.7 12.9 0.00 0.00 0.00 16 1014.9
20260902033110 21 224 9.7 12.9 0.00 0.00 0.00 17 1014.9
20260902032609 21 225 9.7 12.9 0.00 0.00 0.00 18 1014.8
20260902032107 21 230 9.7 14.5 0.00 0.00 0.00 17 1014.8
20260902031608 21 223 9.7 14.5 0.00 0.00 0.00 16 1014.9
20260902031106 21 211 9.7 12.9 0.00 0.00 0.00 16 1014.8
20260902030606 21 236 9.7 14.5 0.00 0.00 0.00 14 1014.8
20260902030105 21 233 9.7 14.5 0.00 0.00 0.00 12 1014.8
20260902025610 21 217 12.9 14.5 0.00 0.00 0.00 12 1014.8
20260902025606 21 221 11.3 14.5 0.00 0.00 0.00 12 1014.8
20260902024606 21 222 12.9 16.1 0.00 0.00 0.00 11 1014.8
20260902024112 21 221 12.9 14.5 0.00 0.00 0.00 13 1014.6
20260902024106 21 217 12.9 16.1 0.00 0.00 0.00 11 1014.6
20260902023105 21 213 11.3 14.5 0.00 0.00 0.00 12 1014.5
20260902022606 21 220 12.9 16.1 0.00 0.00 0.00 16 1014.6
20260902022104 21 212 12.9 16.1 0.00 0.00 0.00 13 1014.5
20260902021603 21 204 14.5 17.7 0.00 0.00 0.00 12 1014.5
20260902021104 21 211 14.5 17.7 0.00 0.00 0.00 11 1014.5
20260902020604 21 205 12.9 16.1 0.00 0.00 0.00 12 1014.5
20260902020104 22 211 12.9 16.1 0.00 0.00 0.00 15 1014.6
20260902015604 22 198 12.9 16.1 0.00 0.00 0.00 17 1014.6
20260902015104 22 199 11.3 16.1 0.00 0.00 0.00 12 1014.6
20260902014603 22 200 11.3 16.1 0.00 0.00 0.00 17 1014.5
20260902014103 22 202 11.3 16.1 0.00 0.00 0.00 16 1014.6
20260902013604 22 205 11.3 16.1 0.00 0.00 0.00 15 1014.6
20260902013104 22 195 12.9 17.7 0.00 0.00 0.00 13 1014.8
20260902012602 22 205 12.9 17.7 0.00 0.00 0.00 18 1014.8
20260902012102 22 193 12.9 17.7 0.00 0.00 0.00 17 1014.6
20260902011602 22 194 11.3 17.7 0.00 0.00 0.00 17 1014.6
20260902011100 22 202 11.3 16.1 0.00 0.00 0.00 14 1014.8
20260902010559 22 183 11.3 16.1 0.00 0.00 0.00 16 1014.9
20260902010100 22 186 11.3 16.1 0.00 0.00 0.00 13 1014.9
20260902005600 22 202 9.7 16.1 0.00 0.00 0.00 17 1014.9
20260902005059 22 190 9.7 16.1 0.00 0.00 0.00 18 1014.9
20260902004600 22 196 9.7 16.1 0.00 0.00 0.00 20 1014.9
20260902004058 22 214 9.7 14.5 0.00 0.00 0.00 17 1014.9
20260902003558 22 199 9.7 14.5 0.00 0.00 0.00 25 1015.1
20260902003104 22 196 9.7 16.1 0.00 0.00 0.00 38 1015.0
20260902003057 22 223 9.7 14.5 0.00 0.00 0.00 29 1015.0
20260902002704 22 206 11.3 16.1 0.00 0.00 0.00 32 1015.1
20260902001555 22 192 11.3 16.1 0.00 0.00 0.00 36 1015.1
20260902001055 22 191 9.7 16.1 0.00 0.00 0.00 35 1015.1
20260902000556 22 192 9.7 14.5 0.00 0.00 0.00 37 1015.0
20260902000056 22 176 9.7 14.5 0.00 0.00 0.00 36 1015.0
20260901235556 22 219 11.3 14.5 0.00 0.00 0.00 30 1015.1
20260901235056 22 195 9.7 14.5 0.00 0.00 0.00 27 1015.1
20260901234559 22 182 9.7 14.5 0.00 0.00 0.00 31 1015.1
20260901234555 22 220 9.7 14.5 0.00 0.00 0.00 28 1015.1
20260901233556 22 229 11.3 16.1 0.00 0.00 0.00 23 1015.1
20260901233102 22 211 9.7 14.5 0.00 0.00 0.00 25 1015.1
20260901233056 22 202 11.3 16.1 0.00 0.00 0.00 31 1015.1